Home > Weather > Ettelbruck > Past weeks

Flag for Luxembourg Past Weather in Ettelbruck, Luxembourg — Yesterday and Last 2 Weeks

Now
58 °F

Partly sunny.


Feels Like: 58 °F
Forecast: 50 / 64 °F
Wind: 5 mph from Northwest

Location: Luxembourg / Luxembourg

Current Time: Jun 26, 2016 at 9:14:20 PM

Latest Report: Jun 26, 2016 at 8:00 PM


Visibility: 22 mi

Pressure: 30.11 "Hg

Humidity: 75%

Dew Point: 50 °F

Location of EttelbruckLocation

Past Weather in Ettelbruck — Graph

°F

Ettelbruck Temperature Yesterday

Maximum temperature yesterday: 68 °F (at 1:00 AM)
Minimum temperature yesterday: 56 °F (at 6:00 PM)
Average temperature yesterday: 61 °F

High & Low Weather Summary for the Past Weeks

 TemperatureHumidityPressure
High88 °F (Jun 23, 6:00 PM)98% (Jun 14, 4:00 AM)30.29 "Hg (Jun 14, 4:00 AM)
Low47 °F (Jun 20, 6:00 AM)41% (Jun 23, 6:00 PM)29.50 "Hg (Jun 14, 6:00 PM)
Average61 °F83%29.92 "Hg
* Reported Jun 11 8:00 PM — Jun 26 8:00 PM, Ettelbruck, Weather by CustomWeather, © 2016

Note: Actual official high and low records may vary slightly from our data, if they occured in-between our weather recording intervals... More about our weather records

Advertising

Ettelbruck Weather History for the Previous 24 Hours

Scroll right to see more
 ConditionsComfort  
Time TempWeatherWind HumidityBarometerVisibility
8:00 PM
Sun, Jun 26
58 °FPartly sunny.5 mph75%30.11 "Hg22 mi
7:00 PM59 °FPartly sunny.7 mph74%30.10 "Hg22 mi
6:00 PM64 °FSprinkles. Partly sunny.6 mph58%30.08 "Hg22 mi
5:00 PM65 °FPartly sunny.7 mph55%30.07 "Hg22 mi
4:00 PM64 °FPartly sunny.6 mph59%30.07 "Hg22 mi
3:00 PM62 °FPartly sunny.6 mph69%30.09 "Hg19 mi
2:00 PM62 °FOvercast.6 mph63%30.09 "Hg19 mi
1:00 PM63 °FPartly sunny.3 mph60%30.09 "Hg19 mi
12:00 PM63 °FScattered clouds.6 mph58%30.09 "Hg19 mi
11:00 AM60 °FScattered clouds.5 mph68%30.10 "Hg19 mi
10:00 AM60 °FScattered clouds.5 mph68%30.10 "Hg19 mi
9:00 AM57 °FPassing clouds.5 mph80%30.09 "Hg19 mi
8:00 AM54 °FPassing clouds.2 mph89%30.10 "Hg16 mi
7:00 AM51 °FPassing clouds.1 mph93%30.10 "Hg16 mi
6:00 AM51 °FSunny.2 mph95%30.09 "Hg7 mi
5:00 AM50 °FPassing clouds.2 mph95%30.09 "Hg9 mi
4:00 AM51 °FClear.1 mph95%30.09 "Hg11 mi
3:00 AM52 °FClear.1 mph95%30.09 "Hg8 mi
2:00 AM53 °FPassing clouds.1 mph94%30.09 "Hg16 mi
1:00 AM54 °FPassing clouds.No wind93%30.10 "Hg19 mi
12:00 AM55 °FOvercast.1 mph91%30.09 "Hg19 mi
11:00 PM
Sat, Jun 25
56 °FPassing clouds.N/A87%30.08 "Hg22 mi
10:00 PM56 °FPassing clouds.N/A86%30.06 "Hg22 mi
9:00 PM59 °FPassing clouds.1 mph80%30.05 "Hg25 mi
Weather by CustomWeather, © 2016

See weather overviewHow to use our weather pages